www.pogodaiklimat.ru

Погода и климат >> Архив погоды >> Австралия >> Западная Австралия >> Дауоллину


ПОГОДА в Дауоллину

  • Прогноз погоды в Дауоллину
  • Монитор погоды в Дауоллину

АРХИВ ПОГОДЫ в Дауоллину

Время (UTC), дата Ветер
(напр.,м/с)
 
Видим.   Явления Облачность Т
(С)
Тd
(С)
f
(%)
Тe
(С)
Тes
(С)
Комфортность P
(гПа)
Po
(гПа)
Тmin
(С)
Tmax
(С)
R
(мм)
R24
(мм)
S
(см)
19 9.01 ЮЗ 5 н/о н/о +18.8 +11.6 63 +19 +19 1009.2 972.8
22 9.01 ЮЗ 5 н/о н/о +18.6 +12.4 67 +19 +19 1010.3 973.9
01 10.01 ЮЗ 6 н/о н/о +27.3 +11.7 38 +28 +28 жарко 1010.3 973.9 +17.9
04 10.01 ЮЗ 7 н/о н/о +32.3 -1.9 11 +29 +29 жарко 1009.7 973.3
07 10.01 ЮЗ 8 н/о н/о +33.1 +5.6 18 +31 +31 жарко 1009.1 972.7
10 10.01 ЮЗ 9 н/о н/о +27.8 +4.2 22 +26 +26 жарко 1010.3 973.9
13 10.01 ЮЗ 7 н/о н/о +19.3 +11.6 61 +20 +20 1012.9 976.4 +34.4
16 10.01 Ю 5 н/о н/о +15.2 +11.8 80 +14 +14 1013.7 977.2
19 10.01 Ю 5 н/о н/о +13.6 +10.9 84 +12 +12 1013.5 977.0
22 10.01 Ю 6 н/о н/о +14.1 +11.3 83 +12 +12 1014.7 978.1
01 11.01 ЮВ 7 н/о н/о +22.4 +10.9 48 +24 +24 комфорт 1015.5 978.9 +13.0
04 11.01 В 5 н/о н/о +29.6 +8.1 26 +29 +29 жарко 1014.6 978.0
07 11.01 ЮВ 4 н/о н/о +32.4 +1.5 14 +29 +29 жарко 1012.0 975.5
10 11.01 ЮВ 6 н/о н/о +32.3 +1.4 14 +29 +29 жарко 1011.1 974.6
13 11.01 Ю 5 н/о н/о +24.4 +1.3 22 +23 +23 комфорт 1012.4 975.9 +33.9
16 11.01 Ю 5 н/о н/о +19.6 +11.1 58 +21 +21 комфорт 1012.5 976.0
19 11.01 Ю 5 н/о н/о +17.9 +8.5 54 +17 +17 1011.5 975.0
22 11.01 Ю 5 н/о н/о +18.3 +5.2 42 +18 +18 1012.7 976.2
01 12.01 СВ 6 н/о н/о +31.8 +6.1 20 +30 +30 жарко 1012.0 975.5 +16.6
04 12.01 В 5 н/о н/о +40.3 +8.7 15 +38 +38 очень
жарко
1009.7 973.3
07 12.01 С 4 н/о н/о +42.3 +7.0 12 +40 +40 очень
жарко
1006.7 970.4
10 12.01 ЮЗ 12 н/о н/о +37.5 +9.2 18 +36 +36 очень
жарко
1005.9 969.6
13 12.01 ЮЗ 8 н/о н/о +27.6 +4.6 23 +26 +26 жарко 1008.5 972.1 +43.7
16 12.01 ЮЗ 7 н/о н/о +23.7 +6.5 33 +24 +24 комфорт 1008.7 972.3
19 12.01 ЮЗ 6 н/о н/о +20.7 +11.3 55 +23 +23 комфорт 1007.0 970.7
22 12.01 З 5 н/о н/о +17.7 +15.1 85 +17 +17 1010.3 973.9
01 13.01 ЮЗ 7 н/о н/о +24.1 +14.2 54 +27 +27 жарко 1011.7 975.2 +17.7
04 13.01 ЮЗ 7 н/о н/о +32.1 +9.0 24 +31 +31 жарко 1010.9 974.5
07 13.01 Ю 8 н/о н/о +35.2 +2.6 13 +32 +32 жарко 1009.7 973.3
10 13.01 ЮЗ 6 н/о н/о +32.2 +4.9 18 +30 +30 жарко 1009.9 973.5
13 13.01 ЮЗ 9 н/о н/о +21.4 +15.3 68 +25 +25 комфорт 1012.0 975.5 +36.1
16 13.01 Ю 6 н/о н/о +18.4 +15.5 83 +18 +18 1011.6 975.1
19 13.01 Ю 5 н/о н/о +17.3 +14.6 84 +17 +17 1010.5 974.1
22 13.01 ЮВ 6 н/о н/о +17.4 +12.3 72 +17 +17 1011.4 974.9
01 14.01 ЮВ 7 н/о н/о +24.4 +10.3 41 +25 +25 комфорт 1011.4 974.9 +16.3
04 14.01 ЮВ 8 н/о н/о +33.1 +7.1 20 +31 +31 жарко 1009.2 972.8
07 14.01 Ю 7 н/о н/о +34.7 +7.7 19 +33 +33 жарко 1007.6 971.3
10 14.01 Ю 8 н/о н/о +33.0 +8.5 22 +32 +32 жарко 1007.1 970.8
13 14.01 Ю 8 н/о н/о +24.5 +13.1 49 +27 +27 жарко 1009.4 973.0 +35.7
16 14.01 ЮЗ 7 н/о н/о +19.4 +12.2 63 +20 +20 1009.2 972.8
19 14.01 Ю 6 н/о н/о +16.8 +12.3 75 +16 +16 1008.0 971.7
22 14.01 Ю 6 н/о н/о +17.5 +11.1 66 +17 +17 1009.2 972.8
01 15.01 ЮВ 7 н/о н/о +24.6 +12.2 46 +26 +26 жарко 1009.9 973.5 +16.7
04 15.01 Ю 7 н/о н/о +32.2 +9.1 24 +31 +31 жарко 1008.0 971.7
07 15.01 ЮВ 6 н/о н/о +35.4 +8.3 19 +34 +34 очень
жарко
1006.6 970.3
10 15.01 Ю 6 н/о н/о +33.5 +7.5 20 +32 +32 жарко 1006.1 969.8
13 15.01 ЮЗ 7 н/о н/о +23.3 +12.9 52 +26 +26 жарко 1007.9 971.6 +36.3
16 15.01 ЮЗ 6 н/о н/о +17.5 +12.8 74 +17 +17 1008.2 971.9
19 15.01 ЮЗ 6 н/о н/о +15.8 +13.3 85 +14 +14 1007.8 971.5
22 15.01 Ю 5 н/о н/о +15.2 +12.0 81 +14 +14 1008.9 972.5
01 16.01 Ю 4 н/о н/о +22.8 +11.2 48 +25 +25 комфорт 1009.4 973.0 +14.8
04 16.01 Ю 5 н/о н/о +29.4 +10.0 30 +29 +29 жарко 1008.9 972.5
07 16.01 ЮЗ 6 н/о н/о +33.2 +3.1 15 +30 +30 жарко 1006.9 970.6
10 16.01 ЮЗ 9 н/о н/о +30.1 +10.6 30 +30 +30 жарко 1007.0 970.7
13 16.01 Ю 8 н/о н/о +20.7 +10.5 52 +22 +22 комфорт 1009.8 973.4 +34.2
16 16.01 ЮЗ 6 н/о н/о +16.4 +11.1 71 +15 +15 1010.1 973.7
19 16.01 ЮЗ 5 н/о н/о +14.5 +11.5 82 +13 +13 1009.1 972.7

 

Местоположение метеостанции Дауоллину (Западная Австралия, Австралия): широта -30.28 долгота 116.67 высота над уровнем моря 326 м.

В архиве по умолчанию представлена погода в Дауоллину за последнюю неделю. Архивные данные за месяц целиком и за предыдущие месяцы, начиная с января 2011 года, Вы можете получить, выбрав интересующий диапазон дат из раскрывающегося списка и нажав кнопку "Ввод!".


*Определитесь, кто Вы:
робот инопланетянин человек

Внимание! Время в таблицах - всемирное. Для получения местного времени необходимо прибавить поправку, которая равна 8 ч.

Смотрите также архив погоды в соседних городах и на ближайших метеорологических станциях:

Погода в Баджингарре (Западная Австралия, Австралия) (110 км)
Погода в Мораве (Западная Австралия, Австралия) (136 км)
Погода в Гингине (Западная Австралия, Австралия) (153 км)
Погода в Кандердине (Западная Австралия, Австралия) (158 км)
Погода в Буллсбрук Пирс (Западная Австралия, Австралия) (167 км)
Погода в Ошен Риф (Западная Австралия, Австралия) (187 км)
Погода в Гусберри Хилл (Западная Австралия, Австралия) (195 км)
Погода в Перте (Западная Австралия, Австралия) (196 км)
Погода в Перт Монт-Лоули (Западная Австралия, Австралия) (198 км)
Погода в Обсерватории Перт (Западная Австралия, Австралия) (200 км)

Пояснения к столбцам:

Ветер - указаны скорость ветра в м/с - средняя за 10 мин, порывы в срок и между сроками (в фигурных скобках) и направление, откуда дует ветер: С - северный, СВ - северо-восточный, В - восточный, ЮВ - юго-восточный, Ю - южный, ЮЗ - юго-западный, З - западный, СЗ - северо-западный.
Видимость - горизонтальная дальность видимости в метрах или километрах. При видимости от 1 до 10 км при отсутствии осадков обычно наблюдается дымка, при ухудшении видимости до 1 км и менее - туман. В сухую погоду видимость может ухудшаться дымом, пылью или мглою.
Явления - указаны атмосферные явления, наблюдавшиеся в срок или в последний час перед сроком; фигурными скобками обозначены явления, наблюдавшиеся между сроками (за 1-3 часа до срока); квадратными скобками обозначены град или гололедные отложения с указанием их диаметра в мм.
Облачность - указаны через наклонную черту общая и нижняя облачность в баллах и высота нижней границы облаков в метрах; квадратными скобками обозначены формы облаков: Ci - перистые, Cs - перисто-слоистые, Cc - перисто-кучевые, Ac - высококучевые, As - высокослоистые, Sc - слоисто-кучевые, Ns - слоисто-дождевые, Cu - кучевые, Cb - кучево-дождевые. Подробнее классификацию облаков см. в Атласе облаков (PDF).
T - Температура воздуха - температура, измеренная на высоте 2 м над землей.
Td - Температура точки росы - температура, при понижении до которой содержащийся в воздухе водяной пар достигнет насыщения.
f - Относительная влажность воздуха - влажноcть воздуха, измеренная на высоте 2 м над землей.
Te - Эффективная температура - температура, которую ощущает одетый по сезону человек в тени. Характеристика душности погоды. При расчете учитывается влияние влажности воздуха и скорости ветра на теплоощущения человека.
Tes - Эффективная температура на солнце - температура, которую ощущает человек, с поправкой на солнечный нагрев. Характеристика знойности погоды. Зависит от высоты солнца над горизонтом, облачности и скорости ветра. Ночью, в пасмурную погоду, а также при ветре 12 м/с и более поправка равна нулю.
P - Атмосферное давление - приведенное к уровню моря атмосферное давление.
Po - Атмосферное давление - измеренное на уровне метеостанции атмосферное давление.
Tmin - Минимальная температура - минимум температуры воздуха на высоте 2 м над землей.
Tmax - Максимальная температура - максимум температуры воздуха на высоте 2 м над землей.
R - Количество осадков - Количество выпавших осадков за период времени, мм. При наведении курсора мыши на число - период времени, за который выпало указанное количество осадков.
R24 - Количество осадков - Количество выпавших осадков за 24 часа, мм.
S - Снежный покров - Высота снежного покрова, см. При наведении курсора мыши на число - состояние снежного покрова и степень покрытия местности в баллах.